DateTimeUTC,F1_A11,F1_S11,BsB_S11,BsG_S11,BsR_S11,BbsB_S11,BbsG_S11,BbsR_S11,BaB_A11,BaG_A11,BaR_A11,Tu_S11,T_S11,Uu_S11,U_S11,P_S11,T1_A11
2021-10-24T23:00:00Z,00000200,21000000,,,,,,,-000.36,-000.23,-000.55,20.4,27.3,,00.0,0625.4,31.3
2021-10-24T23:01:00Z,00000200,21000000,,,,,,,0000.08,0000.12,0000.26,20.3,27.3,,00.0,0625.4,31.2
2021-10-24T23:02:00Z,00000200,21000000,,,,,,,-000.25,-000.19,-000.14,20.3,27.3,,00.0,0625.4,31.2
2021-10-24T23:03:00Z,00000200,61000000,,,,,,,0000.07,-000.04,-000.30,20.3,27.3,,00.0,0625.5,31.2
2021-10-24T23:04:00Z,00000200,41000000,-000.20,0000.14,0000.05,0000.18,0000.13,0000.24,-000.18,0000.05,-000.15,20.2,27.0,,00.0,0626.2,31.2
2021-10-24T23:05:00Z,00000200,01000000,0000.23,-000.15,-000.18,-000.12,0000.39,-000.03,0000.04,0000.08,0000.50,20.2,26.9,,00.0,0626.3,31.2
2021-10-24T23:06:00Z,00000200,01000000,-000.31,0000.49,-000.07,0000.33,-000.21,-000.35,0000.70,-000.15,-000.33,20.2,26.9,,00.0,0626.4,31.2
2021-10-24T23:07:00Z,00000200,01000000,-000.63,0000.31,-000.18,0000.61,-000.15,-000.06,-000.68,-000.13,0000.22,20.3,26.9,,00.0,0626.3,31.2
2021-10-24T23:08:00Z,00000200,01000000,0000.14,-000.28,-000.03,0000.02,0000.03,-000.01,0000.19,0000.70,0000.12,20.3,27.0,,00.0,0626.4,31.3
2021-10-24T23:09:00Z,00000200,01000000,0000.24,0000.29,-000.38,-000.06,0000.03,-000.04,0000.56,-000.06,0000.35,20.4,27.0,,00.0,0626.4,31.3
2021-10-24T23:10:00Z,00000200,01000000,0000.10,0000.23,-000.00,-000.42,0000.02,0000.25,0000.10,0000.27,0000.05,20.5,27.0,,00.0,0626.5,31.3
2021-10-24T23:11:00Z,00000200,01000000,-000.53,0000.02,-000.08,0000.11,0000.25,0000.30,0000.26,0000.18,-000.41,20.5,27.1,,00.0,0626.5,31.3
2021-10-24T23:12:00Z,00000200,01000000,0000.16,0000.29,0000.04,-000.21,0000.23,0000.08,-000.67,-000.13,0000.48,20.5,27.1,,00.0,0626.4,31.3
2021-10-24T23:13:00Z,00000200,01000000,0000.34,0000.10,0000.12,-000.60,0000.32,0000.09,0000.44,-000.41,-000.43,20.4,27.0,,00.0,0626.5,31.2
2021-10-24T23:14:00Z,00000200,01000000,0000.38,-000.00,0000.18,-000.46,0000.11,0000.29,-000.31,0000.03,0000.15,20.3,27.0,,00.0,0626.5,31.2
2021-10-24T23:15:00Z,00000200,01000000,-000.45,0000.17,0000.12,-000.07,0000.26,0000.41,0000.52,0000.09,0000.46,20.3,26.9,,00.0,0626.6,31.2
2021-10-24T23:16:00Z,00000200,01000000,-000.88,-000.24,0000.07,-000.45,-000.00,0000.00,-000.11,-000.16,-000.36,20.2,26.9,,00.0,0626.5,31.2
2021-10-24T23:17:00Z,00000200,01000000,-000.75,0000.12,-000.23,0000.57,0000.07,0000.22,-000.14,0000.11,0000.01,20.1,26.9,,00.0,0626.6,31.2
2021-10-24T23:18:00Z,00000200,01000000,0000.17,-000.15,-000.01,-000.12,-000.17,0000.24,-000.03,0000.13,0000.01,20.1,26.8,,00.0,0626.6,31.2
2021-10-24T23:19:00Z,00000200,01000000,0000.40,0000.25,-000.08,-000.49,0000.12,0000.05,-000.07,0000.26,-000.01,20.0,26.8,,00.0,0626.7,31.2
2021-10-24T23:20:00Z,00000200,01000000,-000.74,-000.35,-000.02,-000.14,0000.15,-000.09,-000.23,-000.45,0000.11,20.0,26.8,,00.0,0626.8,31.2
2021-10-24T23:21:00Z,00000200,01000000,-000.46,0000.05,0000.09,-000.03,0000.18,0000.38,0000.32,-000.04,-000.26,20.0,26.7,,00.0,0626.7,31.2
2021-10-24T23:22:00Z,00000200,01000000,-000.04,0000.01,-000.02,0000.41,0000.37,0000.29,-000.37,0000.28,0000.15,20.1,26.8,,00.0,0626.8,31.2
2021-10-24T23:23:00Z,00000200,01000000,-001.10,-000.02,-000.05,-000.31,0000.24,-000.10,0000.41,0000.07,0000.27,20.1,26.8,,00.0,0626.8,31.2
2021-10-24T23:24:00Z,00000200,01000000,-000.21,0000.02,0000.12,0001.06,-000.04,0000.00,-000.22,-000.10,-000.11,20.2,26.8,,00.0,0626.8,31.2
2021-10-24T23:25:00Z,00000200,01000000,-000.60,0000.10,-000.06,0000.19,0000.23,-000.21,0000.57,0000.67,0000.15,20.3,26.9,,00.0,0626.9,31.2
2021-10-24T23:26:00Z,00000200,01000000,-000.64,0000.26,0000.38,0000.87,0000.16,0000.25,-000.21,-000.27,-000.12,20.4,26.9,,00.0,0626.9,31.3
2021-10-24T23:27:00Z,00000200,01000000,-000.50,-000.16,-000.17,-000.40,-000.01,0000.30,0000.15,0000.35,0000.20,20.4,27.0,,00.0,0627.0,31.3
2021-10-24T23:28:00Z,00000200,01000000,-000.62,-000.27,0000.14,-000.26,-000.05,-000.13,-000.16,0000.10,0000.37,20.4,27.0,,00.0,0627.0,31.3
2021-10-24T23:29:00Z,00000200,01000000,-000.26,0000.10,0000.27,0000.20,-000.29,-000.31,-000.33,-000.36,-000.54,20.4,26.9,,00.0,0627.1,31.3
2021-10-24T23:30:00Z,00000200,01000000,-000.21,0000.27,-000.01,0000.00,0000.17,0000.00,0000.38,-000.13,0000.01,20.3,26.9,,00.0,0627.1,31.2
2021-10-24T23:31:00Z,00000200,01000000,-000.16,-000.19,0000.26,-000.14,-000.01,0000.14,-000.01,-000.33,-000.32,20.2,26.9,,00.0,0627.1,31.2
2021-10-24T23:32:00Z,00000200,01000000,0000.17,-000.13,-000.05,-000.07,0000.26,0000.11,-000.16,-000.12,-000.01,20.2,26.8,,00.0,0627.2,31.3
2021-10-24T23:33:00Z,00000200,01000000,0000.00,-000.04,0000.14,-000.46,0000.27,-000.00,-000.00,0000.16,0000.36,20.1,26.8,,00.0,0627.2,31.2
2021-10-24T23:34:00Z,00000200,01000000,-000.42,-000.07,0000.15,0000.33,-000.02,0000.05,0000.11,0000.03,-000.02,20.1,26.7,,00.0,0627.2,31.2
2021-10-24T23:35:00Z,00000200,01000000,-000.65,0000.27,-000.40,0000.18,0000.26,-000.54,-000.12,-000.05,0000.01,20.1,26.7,,00.0,0627.3,31.2
2021-10-24T23:36:00Z,00000200,01000000,-000.56,-000.04,0000.22,-000.36,0000.42,-000.01,0000.02,0000.04,-000.17,20.1,26.7,,00.0,0627.3,31.2
2021-10-24T23:37:00Z,00000200,01000000,-000.85,0000.05,-000.02,0000.03,-000.28,0000.03,-000.04,0000.10,0000.34,20.1,26.7,,00.0,0627.3,31.3
2021-10-24T23:38:00Z,00000200,01000000,-000.55,0000.23,-000.05,0000.05,0000.38,0000.04,0000.26,0000.38,0000.32,20.2,26.8,,00.0,0627.3,31.2
2021-10-24T23:39:00Z,00000200,01000000,0000.07,0000.15,0000.15,-000.13,0000.35,-000.18,0000.00,0000.26,-000.27,20.3,26.8,,00.0,0627.4,31.2
2021-10-24T23:40:00Z,00000200,01000000,0000.24,0000.11,-000.23,-000.04,0000.06,-000.09,0000.05,-000.32,-000.11,20.3,26.9,,00.0,0627.5,31.3
2021-10-24T23:41:00Z,00000200,01000000,0000.26,0000.02,-000.02,0000.51,0000.10,-000.36,0000.43,0000.63,0000.23,20.3,26.9,,00.0,0627.5,31.3
2021-10-24T23:42:00Z,00000200,01000000,-000.24,-000.00,-000.16,0000.16,-000.06,-000.03,-000.04,-000.11,-000.24,20.3,26.9,,00.0,0627.5,31.2
2021-10-24T23:43:00Z,00000200,01000000,-000.64,0000.02,0000.16,-000.25,0000.08,0000.13,-000.69,-000.53,0000.07,20.2,26.8,,00.0,0627.6,31.3
2021-10-24T23:44:00Z,00000200,01000000,0000.30,-000.04,-000.19,0000.38,0000.29,-000.32,0000.37,-000.37,-000.04,20.2,26.7,,00.0,0627.6,31.2
2021-10-24T23:45:00Z,00000200,01000000,-000.33,0000.02,0000.13,-000.07,0000.08,0000.60,-000.29,-000.13,-000.35,20.1,26.7,,00.0,0627.6,31.2
2021-10-24T23:46:00Z,00000200,01000000,-000.13,0000.02,0000.16,0000.12,0000.42,-000.16,0000.14,0000.38,0000.19,20.0,26.7,,00.0,0627.7,31.2
2021-10-24T23:47:00Z,00000200,01000000,-000.03,-000.04,0000.18,-000.60,0000.33,-000.07,0000.12,-000.31,-000.14,20.0,26.6,,00.0,0627.6,31.2
2021-10-24T23:48:00Z,00000200,01000000,-000.55,0000.16,0000.04,-000.18,0000.25,0000.35,-000.12,0000.08,-000.17,19.9,26.6,,00.0,0627.7,31.2
2021-10-24T23:49:00Z,00000200,01000000,-000.50,0000.14,-000.03,-000.07,0000.11,-000.03,-000.17,0000.15,0000.64,19.9,26.6,,00.0,0627.7,31.2
2021-10-24T23:50:00Z,00000200,01000000,0000.07,-000.04,0000.08,-000.31,-000.01,0000.12,0000.31,0000.12,-000.41,19.8,26.5,,00.0,0627.7,31.2
2021-10-24T23:51:00Z,00000200,01000000,0000.36,-000.01,-000.20,0000.11,-000.16,-000.15,-000.02,-000.13,0000.54,19.8,26.6,,00.0,0627.8,31.2
2021-10-24T23:52:00Z,00000200,01000000,0000.41,0000.16,-000.12,0000.08,-000.12,-000.42,-000.04,0000.32,0000.02,19.9,26.6,,00.0,0627.9,31.2
2021-10-24T23:53:00Z,00000200,01000000,-000.22,0000.03,0000.03,-000.23,0000.12,0000.04,0000.55,0000.14,-000.02,20.0,26.6,,00.0,0627.9,31.2
2021-10-24T23:54:00Z,00000200,01000000,0000.20,0000.15,0000.03,0000.70,0000.04,-000.14,-000.03,0000.03,-000.09,20.0,26.6,,00.0,0627.9,31.2
2021-10-24T23:55:00Z,00000200,01000000,-001.47,0000.11,0000.09,0000.29,0000.23,0000.24,0000.03,0000.51,0000.37,20.1,26.7,,00.0,0628.0,31.2
2021-10-24T23:56:00Z,00000200,01000000,0000.23,0000.02,0000.09,0000.11,0000.42,-000.10,-000.02,-000.55,-000.21,20.2,26.7,,00.0,0628.0,31.3
2021-10-24T23:57:00Z,00000200,41000000,,,,,,,0000.50,0000.46,-000.05,20.2,26.8,,00.0,0628.1,31.3
2021-10-24T23:58:00Z,00000200,61000000,,,,,,,-000.83,-000.45,-000.17,19.8,26.8,,00.0,0627.2,31.2
2021-10-24T23:59:00Z,00000200,21000000,,,,,,,-000.38,-000.41,0000.23,19.8,26.9,,00.0,0627.2,31.2
